Regional Weather Roundup
Issued by NWS

Home | Current Version | Previous Version | Graphics & Text | Print | Product List | Glossary On
Versions: 1 2 3 4 5 6 7 8 9 10 11 12 13 14 15 16 17 18 19 20 21 22 23 24 25 26 27 28 29 30 31 32 33 34 35 36 37 38 39 40 41 42 43 44 45 46 47 48 49 50
000
ASUS45 KABQ 040610
RWRNM
NEW MEXICO REGIONAL WEATHER ROUNDUP
NATIONAL WEATHER SERVICE ALBUQUERQUE NM
1200 AM MDT TUE AUG 04 2015

NOTE: "FAIR" MEANS FEW OR NO CLOUDS BELOW 12,000 FEET AGL WITH NO
       SIGNIFICANT WEATHER OR OBSTRUCTIONS TO VISION.

      THIS PRODUCT IS RELEASED AS TWO VERSIONS.  ONE VERSION NEAR
      THE TOP OF THE HOUR CONTAINING PRELIMINARY DATA FROM ALBUQUERQUE
      AND OTHER STATIONS.  A FINAL VERSION WITH ADDITIONAL DATA IS
      ISSUED ABOUT 10 MINUTES AFTER THE HOUR.

NMZ501-503-504-510>518-040700-
NORTHWEST PLATEAU/NORTHCENTRAL MOUNTAINS

CITY           SKY/WX    TMP DP  RH WIND       PRES   REMARKS
FARMINGTON     CLEAR     66  47  50 E6        30.13F
6HR MIN TEMP:  66; 6HR MAX TEMP:  86;

LOS ALAMOS     CLEAR     69  41  35 CALM      30.27R
SANTA FE       CLEAR     67  47  48 CALM      30.19R
6HR MIN TEMP:  64; 6HR MAX TEMP:  84;

TAOS           CLEAR     57  43  58 CALM      30.26R
ANGEL FIRE     FAIR      48  46  92 CALM      30.35S

$$
NMZ402-403-502-505>509-040700-
WESTCENTRAL MOUNTAINS/SOUTHWEST MOUNTAINS

CITY           SKY/WX    TMP DP  RH WIND       PRES   REMARKS
GALLUP         PTCLDY    60  52  74 CALM      30.23S
6HR MIN TEMP:  59; 6HR MAX TEMP:  82;

GRANTS         CLEAR     57  54  88 CALM      30.24F
SILVER CITY      N/A     70  57  64 E6        30.16S

$$
NMZ407-409-411-412-040700-
SOUTHERN DESERTS

CITY           SKY/WX    TMP DP  RH WIND       PRES   REMARKS
LORDSBURG      FAIR      77  52  41 S9        30.04S
DEMING         CLOUDY    78  59  51 S3        30.06S
6HR MIN TEMP:  77; 6HR MAX TEMP:  93;

LAS CRUCES     TSTM      68  63  82 SE23G30   30.11F
HOLLOMAN AFB   CLEAR     78  59  51 W20       30.05R
ALAMOGORDO     PTCLDY    77  57  50 S21G29    30.09R
T OR C         PTCLDY    79  56  45 S6        30.07S
6HR MIN TEMP:  77; 6HR MAX TEMP:  91;


$$
NMZ519>523-040700-
CENTRAL VALLEYS/CENTRAL HIGHLANDS

CITY           SKY/WX    TMP DP  RH WIND       PRES   REMARKS
ALBUQUERQUE    PTCLDY    78  46  32 NE7       30.12F
6HR MIN TEMP:  78; 6HR MAX TEMP:  89;

DOUBLE EAGLE   CLEAR     65  51  60 NW9       30.17S
MORIARTY ARPT    N/A     59  50  72 NE5       30.20S
6HR MIN TEMP:  59; 6HR MAX TEMP:  83;

CLINES CORNERS CLEAR     61  49  64 W12       30.23S
6HR MIN TEMP:  60; 6HR MAX TEMP:  79;

BELEN          FAIR      70  44  38 CALM      30.12S
6HR MIN TEMP:  69; 6HR MAX TEMP:  91;

SOCORRO        FAIR      74  48  39 NW8       30.08F
6HR MIN TEMP:  74; 6HR MAX TEMP:  92;


$$
NMZ524>526-539-540-040700-
SOUTHCENTRAL MOUNTAINS

CITY           SKY/WX    TMP DP  RH WIND       PRES   REMARKS
RUIDOSO          N/A    N/A N/A N/A MISG        N/A

$$
NMZ527>531-040700-
NORTHEAST HIGHLANDS/NORTHEAST PLAINS

CITY           SKY/WX    TMP DP  RH WIND       PRES   REMARKS
RATON          PTCLDY    59  55  87 N9        30.21R
6HR MIN TEMP:  59; 6HR MAX TEMP:  80; 6HR PCP:  0.01;

CLAYTON        LGT RAIN  64  60  87 CALM      30.13F
6HR MIN TEMP:  62; 6HR MAX TEMP:  70; 6HR PCP:  1.17;


$$
NMZ532>537-040700-
EASTCENTRAL PLAINS

CITY           SKY/WX    TMP DP  RH WIND       PRES   REMARKS
TUCUMCARI      PTCLDY    73  61  65 S7        30.02R
6HR MIN TEMP:  73; 6HR MAX TEMP:  89;

CANNON AFB     CLEAR     66  62  88 S6        30.07S
6HR MIN TEMP:  66; 6HR MAX TEMP:  80;

CLOVIS AIRPORT PTCLDY    66  63  88 S10       30.08F

$$
NMZ028-029-538-040700-
SOUTHEAST PLAINS

CITY           SKY/WX    TMP DP  RH WIND       PRES   REMARKS
ROSWELL        PTCLDY    69  65  86 SE7       30.03R
6HR MIN TEMP:  69; 6HR MAX TEMP:  84;

ARTESIA        PTCLDY    70  66  88 S7        30.03S
CARLSBAD       PTCLDY    73  64  73 S7        30.02R
6HR MIN TEMP:  73; 6HR MAX TEMP:  82; 6HR PCP: TRACE;

HOBBS            N/A    N/A N/A N/A MISG        N/A


$$


USA.gov is the U.S. government's official web portal to all federal, state and local government web resources and services.